QPF
0.08 0.08 0.07 0.06 0.07 0.09 0.09 0.09 0.08 0.05 0.05 0.05 0.03 0.04 0.05 0.07 0.10 0.08 0.06 0.06 0.07 0.07 0.07 0.05 0.04 0.04 0.03 0.04 0.04 0.04 0.04 0.03 0.03 0.03 0.02 0.02 0.03 0.03
0.10 0.08 0.07 0.06 0.06 0.07 0.08 0.08 0.07 0.06 0.06 0.05 0.03 0.03 0.03 0.04 0.07 0.08 0.08 0.08 0.07 0.07 0.05 0.05 0.04 0.04 0.03 0.03 0.03 0.03 0.04 0.04 0.03 0.03 0.02 0.02 0.02 0.02
0.13 0.09 0.07 0.07 0.06 0.04 0.04 0.05 0.04 0.04 0.03 0.03 0.02 0.02 0.02 0.03 0.05 0.06 0.07 0.06 0.05 0.05 0.04 0.03 0.03 0.03 0.03 0.03 0.03 0.03 0.03 0.04 0.04 0.03 0.02 0.02 0.03 0.03
0.10 0.09 0.06 0.05 0.03 0.03 0.03 0.03 0.03 0.02 0.02 0.02 0.02 0.01 0.02 0.01 0.01 0.02 0.03 0.03 0.04 0.05 0.04 0.03 0.03 0.02 0.03 0.02 0.02 0.02 0.02 0.02 0.03 0.02 0.02 0.03 0.04 0.05
0.05 0.05 0.03 0.02 0.01 0.02 0.01 0.02 0.02 0.02 0.02 0.02 0.01 0.01 0.02 0.01 0.01 0.01 0.02 0.02 0.02 0.03 0.04 0.04 0.04 0.03 0.02 0.02 0.01 0.01 0.01 0.01 0.02 0.01 0.02 0.02 0.04 0.05
0.04 0.04 0.03 0.03 0.02 0.02 0.02 0.01 0.01 0.01 0.01 0.01 0.01 0.01 0.01 0.01 0.01 0.01 0.01 0.01 0.01 0.02 0.03 0.03 0.03 0.03 0.02 0.01 0.01 0.01 0.01 0.01 0.01 0.01 0.02 0.02 0.04 0.05
0.04 0.05 0.04 0.04 0.04 0.03 0.02 0.02 0.02 0.01 0.01 0.01 0.01 0.01 0.00 0.01 0.00 0.00 0.00 0.00 0.01 0.01 0.02 0.02 0.02 0.02 0.02 0.01 0.01 0.01 0.00 0.01 0.01 0.01 0.01 0.02 0.03 0.04
0.03 0.03 0.04 0.04 0.04 0.03 0.03 0.03 0.03 0.02 0.01 0.01 0.01 0.01 0.00 0.00 0.00 0.00 0.00 0.00 0.00 0.00 0.01 0.01 0.02 0.02 0.01 0.01 0.01 0.01 0.01 0.01 0.01 0.01 0.02 0.02 0.02 0.04
0.03 0.04 0.03 0.02 0.03 0.03 0.03 0.03 0.03 0.03 0.02 0.01 0.01 0.01 0.00 0.01 0.01 0.00 0.00 0.00 0.00 0.00 0.01 0.01 0.02 0.02 0.01 0.01 0.01 0.01 0.01 0.01 0.01 0.01 0.02 0.02 0.03 0.04
0.03 0.03 0.02 0.01 0.02 0.04 0.04 0.03 0.03 0.03 0.03 0.02 0.01 0.01 0.01 0.01 0.01 0.01 0.01 0.01 0.00 0.01 0.01 0.01 0.01 0.01 0.00 0.00 0.01 0.01 0.01 0.01 0.01 0.02 0.02 0.03 0.04 0.04
0.02 0.02 0.02 0.01 0.02 0.04 0.04 0.02 0.02 0.02 0.02 0.02 0.01 0.00 0.00 0.01 0.01 0.01 0.01 0.01 0.01 0.01 0.01 0.01 0.01 0.01 0.01 0.01 0.01 0.01 0.01 0.01 0.01 0.02 0.02 0.03 0.04 0.04
0.02 0.01 0.02 0.02 0.03 0.04 0.03 0.02 0.02 0.01 0.02 0.02 0.01 0.00 0.00 0.01 0.01 0.01 0.02 0.03 0.03 0.01 0.01 0.02 0.01 0.01 0.01 0.01 0.01 0.01 0.01 0.02 0.02 0.02 0.02 0.03 0.05 0.07
0.01 0.01 0.02 0.03 0.03 0.03 0.03 0.03 0.03 0.03 0.03 0.02 0.01 0.01 0.01 0.01 0.01 0.01 0.02 0.03 0.02 0.02 0.02 0.02 0.02 0.03 0.02 0.01 0.01 0.01 0.01 0.02 0.03 0.03 0.04 0.04 0.06 0.07
0.02 0.02 0.02 0.03 0.03 0.02 0.02 0.03 0.04 0.04 0.04 0.03 0.02 0.01 0.01 0.01 0.01 0.01 0.02 0.02 0.02 0.02 0.03 0.04 0.05 0.05 0.05 0.03 0.02 0.01 0.02 0.04 0.05 0.05 0.05 0.06 0.08 0.10
0.04 0.03 0.03 0.03 0.02 0.02 0.02 0.03 0.03 0.03 0.05 0.04 0.03 0.02 0.02 0.02 0.02 0.01 0.01 0.02 0.02 0.02 0.03 0.04 0.05 0.05 0.05 0.03 0.02 0.02 0.04 0.05 0.05 0.05 0.06 0.07 0.08 0.10
0.04 0.04 0.04 0.04 0.03 0.03 0.02 0.02 0.02 0.02 0.03 0.04 0.03 0.02 0.02 0.02 0.01 0.01 0.02 0.02 0.02 0.03 0.03 0.03 0.03 0.02 0.02 0.02 0.02 0.03 0.04 0.05 0.05 0.05 0.06 0.07 0.07 0.07
0.03 0.04 0.03 0.03 0.02 0.02 0.02 0.02 0.02 0.02 0.02 0.02 0.02 0.03 0.03 0.03 0.02 0.02 0.02 0.02 0.03 0.03 0.03 0.03 0.03 0.03 0.02 0.02 0.02 0.03 0.02 0.03 0.04 0.05 0.06 0.06 0.06 0.06
0.05 0.04 0.04 0.04 0.03 0.02 0.02 0.02 0.02 0.02 0.02 0.02 0.03 0.03 0.04 0.04 0.05 0.05 0.04 0.04 0.03 0.03 0.03 0.03 0.03 0.03 0.03 0.02 0.03 0.04 0.03 0.03 0.02 0.03 0.03 0.04 0.05 0.05
0.09 0.08 0.07 0.06 0.04 0.04 0.03 0.02 0.02 0.02 0.02 0.03 0.05 0.05 0.05 0.04 0.04 0.04 0.04 0.04 0.04 0.03 0.03 0.04 0.04 0.04 0.04 0.03 0.03 0.04 0.03 0.02 0.02 0.03 0.03 0.03 0.03 0.04
0.06 0.07 0.06 0.06 0.06 0.05 0.05 0.04 0.03 0.03 0.02 0.03 0.03 0.04 0.03 0.03 0.03 0.04 0.04 0.04 0.04 0.04 0.04 0.04 0.04 0.05 0.05 0.04 0.03 0.04 0.04 0.02 0.02 0.02 0.03 0.03 0.03 0.03
0.02 0.04 0.05 0.05 0.05 0.04 0.04 0.04 0.03 0.02 0.02 0.01 0.01 0.02 0.02 0.02 0.02 0.02 0.03 0.03 0.04 0.05 0.05 0.05 0.05 0.06 0.06 0.07 0.06 0.05 0.04 0.04 0.03 0.02 0.02 0.02 0.02 0.02
0.02 0.02 0.02 0.02 0.02 0.02 0.02 0.03 0.03 0.02 0.02 0.01 0.01 0.02 0.02 0.03 0.03 0.02 0.03 0.03 0.03 0.03 0.02 0.02 0.03 0.04 0.05 0.05 0.05 0.05 0.05 0.04 0.04 0.03 0.02 0.02 0.02 0.01
0.03 0.03 0.02 0.02 0.02 0.02 0.02 0.03 0.03 0.03 0.02 0.02 0.03 0.04 0.05 0.04 0.04 0.03 0.03 0.03 0.03 0.03 0.02 0.02 0.02 0.03 0.04 0.05 0.05 0.05 0.05 0.05 0.04 0.04 0.03 0.03 0.02 0.02
MSLP
1013.17 1013.54 1013.93 1014.34 1014.72 1015.05 1015.33 1015.55 1015.73 1015.87 1016.00 1016.13 1016.28 1016.45 1016.64 1016.84 1017.04 1017.25 1017.44 1017.61 1017.75 1017.84 1017.86 1017.79 1017.63 1017.36 1016.98 1016.53 1016.02 1015.51 1015.06 1014.71 1014.50 1014.47 1014.62 1014.94 1015.38 1015.92
1012.65 1013.01 1013.39 1013.78 1014.16 1014.51 1014.82 1015.09 1015.32 1015.53 1015.73 1015.92 1016.11 1016.32 1016.53 1016.75 1016.96 1017.17 1017.38 1017.57 1017.73 1017.85 1017.92 1017.91 1017.81 1017.61 1017.30 1016.91 1016.46 1016.00 1015.58 1015.24 1015.04 1014.99 1015.10 1015.37 1015.76 1016.23
1012.18 1012.55 1012.93 1013.32 1013.70 1014.07 1014.41 1014.72 1015.01 1015.28 1015.54 1015.79 1016.03 1016.27 1016.51 1016.73 1016.95 1017.17 1017.37 1017.57 1017.75 1017.91 1018.01 1018.06 1018.02 1017.88 1017.65 1017.34 1016.96 1016.57 1016.21 1015.92 1015.73 1015.68 1015.77 1015.99 1016.32 1016.72
1011.80 1012.17 1012.55 1012.94 1013.33 1013.70 1014.07 1014.41 1014.75 1015.07 1015.38 1015.68 1015.96 1016.23 1016.48 1016.72 1016.94 1017.15 1017.36 1017.56 1017.75 1017.92 1018.06 1018.15 1018.17 1018.11 1017.95 1017.72 1017.44 1017.13 1016.85 1016.61 1016.47 1016.43 1016.51 1016.70 1016.97 1017.31
1011.50 1011.86 1012.23 1012.61 1012.99 1013.37 1013.74 1014.10 1014.45 1014.80 1015.15 1015.48 1015.79 1016.08 1016.35 1016.59 1016.82 1017.03 1017.24 1017.45 1017.65 1017.84 1018.01 1018.14 1018.21 1018.20 1018.13 1017.99 1017.80 1017.58 1017.38 1017.22 1017.14 1017.13 1017.22 1017.40 1017.64 1017.92
1011.24 1011.59 1011.94 1012.29 1012.64 1012.99 1013.34 1013.69 1014.05 1014.40 1014.75 1015.09 1015.42 1015.73 1016.01 1016.26 1016.50 1016.73 1016.95 1017.17 1017.39 1017.60 1017.79 1017.95 1018.07 1018.13 1018.13 1018.06 1017.96 1017.84 1017.74 1017.66 1017.64 1017.69 1017.81 1017.99 1018.21 1018.46
1010.99 1011.30 1011.61 1011.91 1012.22 1012.52 1012.83 1013.15 1013.47 1013.81 1014.15 1014.49 1014.82 1015.13 1015.42 1015.69 1015.95 1016.20 1016.44 1016.69 1016.93 1017.17 1017.39 1017.58 1017.74 1017.85 1017.91 1017.92 1017.90 1017.88 1017.86 1017.87 1017.93 1018.04 1018.21 1018.41 1018.64 1018.88
1010.72 1010.97 1011.22 1011.46 1011.70 1011.94 1012.19 1012.46 1012.74 1013.04 1013.35 1013.67 1013.99 1014.31 1014.61 1014.90 1015.18 1015.46 1015.73 1016.01 1016.28 1016.55 1016.80 1017.03 1017.22 1017.38 1017.49 1017.57 1017.62 1017.68 1017.74 1017.84 1017.98 1018.16 1018.38 1018.62 1018.88 1019.12
1010.40 1010.59 1010.77 1010.94 1011.11 1011.28 1011.47 1011.68 1011.91 1012.16 1012.44 1012.73 1013.04 1013.35 1013.65 1013.96 1014.27 1014.57 1014.88 1015.19 1015.49 1015.79 1016.07 1016.33 1016.56 1016.75 1016.90 1017.04 1017.16 1017.28 1017.43 1017.60 1017.81 1018.06 1018.34 1018.63 1018.92 1019.20
1010.06 1010.19 1010.29 1010.40 1010.50 1010.62 1010.75 1010.90 1011.08 1011.29 1011.53 1011.79 1012.07 1012.36 1012.67 1012.98 1013.30 1013.63 1013.96 1014.29 1014.62 1014.94 1015.25 1015.53 1015.78 1016.00 1016.20 1016.38 1016.55 1016.74 1016.95 1017.19 1017.47 1017.78 1018.12 1018.46 1018.79 1019.10
1009.74 1009.81 1009.86 1009.91 1009.97 1010.04 1010.12 1010.23 1010.37 1010.54 1010.74 1010.96 1011.21 1011.47 1011.76 1012.06 1012.37 1012.70 1013.03 1013.37 1013.72 1014.05 1014.37 1014.66 1014.94 1015.19 1015.42 1015.64 1015.86 1016.10 1016.37 1016.67 1017.01 1017.37 1017.76 1018.14 1018.51 1018.86
1009.49 1009.51 1009.53 1009.55 1009.57 1009.61 1009.67 1009.75 1009.85 1009.98 1010.14 1010.31 1010.51 1010.73 1010.98 1011.24 1011.52 1011.82 1012.14 1012.47 1012.80 1013.13 1013.45 1013.75 1014.04 1014.32 1014.58 1014.84 1015.11 1015.40 1015.72 1016.07 1016.46 1016.87 1017.29 1017.71 1018.11 1018.49
1009.34 1009.34 1009.34 1009.34 1009.36 1009.38 1009.42 1009.47 1009.54 1009.62 1009.72 1009.84 1009.98 1010.14 1010.32 1010.52 1010.75 1011.00 1011.28 1011.57 1011.87 1012.18 1012.49 1012.79 1013.09 1013.39 1013.68 1013.98 1014.30 1014.64 1015.01 1015.40 1015.83 1016.27 1016.72 1017.16 1017.58 1017.97
1009.33 1009.31 1009.31 1009.30 1009.30 1009.31 1009.33 1009.34 1009.37 1009.40 1009.44 1009.49 1009.56 1009.64 1009.73 1009.86 1010.01 1010.19 1010.40 1010.64 1010.90 1011.17 1011.46 1011.76 1012.06 1012.38 1012.70 1013.04 1013.40 1013.79 1014.21 1014.64 1015.10 1015.56 1016.03 1016.48 1016.90 1017.30
1009.42 1009.41 1009.39 1009.38 1009.36 1009.35 1009.33 1009.30 1009.27 1009.24 1009.20 1009.17 1009.15 1009.14 1009.15 1009.18 1009.25 1009.35 1009.48 1009.65 1009.85 1010.09 1010.35 1010.63 1010.94 1011.27 1011.62 1012.00 1012.40 1012.83 1013.28 1013.75 1014.23 1014.71 1015.17 1015.62 1016.04 1016.43
1009.60 1009.57 1009.55 1009.51 1009.46 1009.40 1009.33 1009.24 1009.14 1009.03 1008.92 1008.80 1008.68 1008.58 1008.50 1008.45 1008.43 1008.45 1008.51 1008.61 1008.75 1008.93 1009.16 1009.42 1009.72 1010.06 1010.42 1010.83 1011.26 1011.72 1012.20 1012.69 1013.18 1013.66 1014.12 1014.56 1014.97 1015.35
1009.79 1009.76 1009.70 1009.62 1009.53 1009.41 1009.27 1009.10 1008.92 1008.73 1008.53 1008.33 1008.14 1007.96 1007.80 1007.67 1007.57 1007.52 1007.51 1007.54 1007.62 1007.75 1007.93 1008.16 1008.44 1008.76 1009.12 1009.53 1009.98 1010.45 1010.94 1011.43 1011.92 1012.40 1012.85 1013.27 1013.67 1014.04
1009.96 1009.90 1009.80 1009.68 1009.52 1009.32 1009.10 1008.86 1008.61 1008.34 1008.07 1007.80 1007.54 1007.30 1007.09 1006.90 1006.75 1006.63 1006.56 1006.53 1006.55 1006.62 1006.74 1006.91 1007.14 1007.43 1007.76 1008.15 1008.57 1009.03 1009.51 1009.99 1010.47 1010.93 1011.37 1011.78 1012.16 1012.52
1010.07 1009.97 1009.83 1009.65 1009.42 1009.16 1008.87 1008.56 1008.24 1007.92 1007.60 1007.28 1006.99 1006.72 1006.47 1006.25 1006.05 1005.89 1005.76 1005.67 1005.62 1005.61 1005.66 1005.76 1005.91 1006.13 1006.40 1006.73 1007.11 1007.52 1007.96 1008.41 1008.86 1009.30 1009.72 1010.12 1010.50 1010.87
1010.12 1009.98 1009.79 1009.55 1009.27 1008.96 1008.62 1008.27 1007.91 1007.56 1007.22 1006.89 1006.59 1006.30 1006.04 1005.80 1005.58 1005.38 1005.19 1005.03 1004.91 1004.81 1004.76 1004.76 1004.82 1004.93 1005.11 1005.35 1005.65 1005.99 1006.36 1006.76 1007.17 1007.58 1007.98 1008.37 1008.76 1009.15
1010.10 1009.93 1009.71 1009.43 1009.12 1008.78 1008.42 1008.05 1007.69 1007.34 1007.01 1006.70 1006.41 1006.14 1005.88 1005.63 1005.38 1005.14 1004.90 1004.67 1004.45 1004.26 1004.09 1003.97 1003.91 1003.90 1003.96 1004.08 1004.27 1004.51 1004.80 1005.12 1005.48 1005.85 1006.23 1006.61 1007.01 1007.44
1010.06 1009.86 1009.61 1009.32 1009.00 1008.66 1008.31 1007.96 1007.63 1007.31 1007.01 1006.74 1006.48 1006.22 1005.97 1005.71 1005.44 1005.16 1004.86 1004.55 1004.24 1003.93 1003.65 1003.40 1003.20 1003.05 1002.97 1002.96 1003.03 1003.15 1003.34 1003.58 1003.86 1004.19 1004.54 1004.92 1005.34 1005.79
1010.01 1009.79 1009.53 1009.25 1008.94 1008.62 1008.31 1008.00 1007.72 1007.45 1007.20 1006.96 1006.74 1006.51 1006.26 1005.99 1005.69 1005.36 1005.00 1004.61 1004.20 1003.79 1003.39 1003.02 1002.68 1002.40 1002.19 1002.04 1001.97 1001.98 1002.05 1002.19 1002.40 1002.66 1002.97 1003.34 1003.77 1004.25
Thickness
5739 5737 5735 5735 5734 5732 5729 5724 5716 5709 5708 5711 5712 5714 5713 5711 5709 5707 5704 5702 5700 5699 5698 5697 5696 5694 5693 5692 5691 5689 5687 5685 5683 5682 5680 5679 5678 5676
5737 5735 5733 5733 5731 5730 5728 5725 5721 5714 5708 5710 5710 5710 5709 5707 5705 5703 5701 5699 5697 5695 5694 5693 5692 5691 5689 5688 5687 5685 5683 5681 5679 5677 5676 5674 5673 5672
5735 5733 5731 5730 5728 5727 5725 5722 5719 5715 5708 5708 5707 5707 5704 5702 5701 5699 5697 5696 5694 5692 5690 5689 5688 5687 5685 5684 5682 5680 5678 5677 5675 5673 5671 5670 5669 5668
5732 5731 5729 5728 5726 5724 5722 5719 5717 5715 5709 5704 5703 5701 5700 5698 5696 5694 5694 5692 5690 5688 5686 5685 5683 5682 5681 5679 5677 5675 5674 5672 5670 5668 5667 5665 5664 5663
5731 5728 5727 5725 5722 5721 5719 5716 5713 5712 5708 5703 5699 5698 5696 5694 5691 5690 5688 5686 5685 5684 5682 5680 5678 5677 5676 5674 5672 5670 5669 5667 5666 5664 5662 5661 5659 5658
5728 5726 5724 5722 5720 5718 5716 5712 5710 5707 5704 5700 5696 5693 5691 5689 5686 5683 5680 5679 5678 5678 5676 5675 5673 5671 5670 5668 5667 5665 5664 5662 5660 5659 5657 5656 5654 5653
5724 5723 5722 5720 5718 5715 5713 5709 5706 5702 5699 5695 5691 5688 5685 5682 5680 5678 5675 5673 5672 5671 5669 5669 5667 5666 5665 5663 5662 5660 5659 5657 5655 5653 5652 5650 5649 5648
5720 5719 5718 5717 5715 5712 5710 5708 5705 5700 5695 5692 5688 5684 5682 5680 5677 5674 5670 5666 5663 5666 5663 5663 5662 5661 5660 5659 5658 5656 5655 5653 5651 5649 5647 5645 5644 5642
5716 5714 5714 5712 5709 5707 5705 5703 5701 5699 5696 5692 5686 5684 5680 5678 5674 5670 5666 5663 5661 5662 5659 5657 5657 5655 5656 5655 5654 5652 5650 5649 5647 5644 5642 5641 5639 5637
5711 5709 5707 5705 5704 5701 5699 5696 5694 5693 5691 5689 5686 5684 5681 5678 5673 5670 5666 5661 5659 5658 5655 5651 5651 5650 5652 5650 5649 5648 5646 5644 5642 5640 5638 5636 5634 5632
5706 5704 5702 5700 5698 5695 5692 5689 5687 5686 5686 5684 5682 5680 5677 5674 5670 5664 5658 5654 5651 5652 5651 5647 5646 5645 5644 5644 5644 5642 5641 5639 5636 5634 5632 5630 5628 5626
5699 5698 5697 5695 5692 5689 5686 5683 5680 5679 5678 5676 5674 5672 5670 5668 5665 5660 5656 5650 5646 5645 5647 5642 5640 5637 5635 5637 5637 5636 5634 5633 5631 5629 5627 5625 5622 5619
5692 5691 5690 5689 5686 5684 5681 5679 5676 5674 5671 5668 5665 5664 5662 5659 5657 5655 5652 5648 5643 5642 5643 5638 5634 5631 5629 5629 5629 5629 5628 5627 5625 5623 5621 5619 5617 5614
5686 5685 5684 5682 5680 5677 5675 5673 5670 5667 5663 5660 5657 5655 5653 5651 5650 5649 5646 5644 5642 5639 5638 5634 5630 5627 5623 5620 5620 5621 5620 5619 5618 5617 5615 5613 5610 5608
5681 5680 5678 5676 5673 5670 5668 5666 5662 5658 5655 5651 5649 5648 5647 5646 5644 5641 5639 5637 5634 5633 5631 5629 5626 5622 5618 5615 5614 5612 5612 5612 5611 5610 5608 5606 5604 5602
5674 5672 5670 5667 5665 5663 5661 5657 5654 5651 5648 5644 5642 5641 5639 5637 5634 5632 5629 5627 5624 5623 5623 5621 5619 5616 5612 5609 5607 5605 5604 5603 5604 5602 5601 5600 5599 5597
5666 5662 5659 5656 5654 5652 5651 5648 5646 5642 5639 5636 5634 5632 5630 5628 5626 5623 5620 5618 5615 5614 5613 5612 5611 5608 5605 5602 5599 5598 5597 5596 5596 5595 5593 5592 5593 5592
5658 5654 5651 5648 5646 5644 5641 5639 5637 5634 5631 5628 5625 5623 5621 5618 5616 5614 5611 5609 5606 5605 5604 5602 5600 5597 5595 5594 5593 5591 5590 5589 5588 5587 5585 5584 5585 5586
5650 5647 5644 5642 5639 5637 5634 5631 5628 5626 5624 5620 5617 5615 5612 5610 5607 5605 5603 5600 5598 5596 5595 5593 5591 5587 5585 5585 5586 5585 5583 5582 5580 5578 5577 5577 5579 5580
5643 5640 5637 5635 5632 5629 5627 5624 5621 5619 5616 5613 5610 5607 5605 5602 5599 5596 5594 5591 5589 5588 5586 5585 5583 5581 5580 5579 5578 5578 5578 5576 5573 5571 5571 5570 5571 5572
5636 5633 5631 5628 5625 5623 5620 5617 5614 5612 5609 5606 5603 5600 5598 5594 5592 5590 5587 5585 5582 5580 5579 5579 5579 5578 5576 5572 5570 5570 5571 5570 5569 5567 5565 5563 5562 5562
5629 5626 5624 5621 5619 5616 5613 5610 5608 5605 5602 5599 5597 5594 5592 5589 5586 5584 5582 5579 5577 5575 5575 5575 5574 5572 5569 5566 5565 5565 5564 5564 5563 5562 5561 5560 5558 5556
5623 5620 5616 5614 5612 5609 5606 5603 5601 5598 5596 5593 5591 5588 5586 5583 5581 5579 5577 5574 5572 5571 5570 5568 5567 5565 5563 5562 5560 5558 5557 5557 5555 5554 5554 5555 5555 5555